Location: Sabalos
(43.2860°N, 0.1414°E)
Time: 21:10:41
(UTC+00:00)

Landsat 7 - Pass Details

Date: 05 July 2020
Orbit: 701 x 703 km, 98.1° (Epoch: 14 August)

Event Time Altitude Azimuth Distance (km) Brightness Sun altitude
Exits shadow 21:21:46 16° 178° (S) 1,818 5.5 -14.2°
Maximum altitude 21:25:37 66° 259° (WSW) 768 4.1 -14.6°
Drops below altitude 10° 21:30:22 10° 341° (NNW) 2,180 7.6 -15.2°
Sets 21:32:39 0° 345° (NNW) 3,102 8.5 -15.4°
